Weather in Verkhniy Mangirtuy

Russia / Republic of Buryatia     50°40′17″N   107°15′02″E
temp.,
°C
wind,
m/s
gust,
m/s
humid.,
%
clouds,
%
prec.,
mm/h
press.,
hPa
HPBL,
m
17 june, thu
thu1723:00+3wnw219652 0.3 101122
02:00+3wnw1195100 0.3 101314
05:00+4w1295100 0.0 101397
08:00+7sw2294100 0.0 1013264
11:00+14nnw387394 0.1 10111297
14:00+18nnw7114540 0.8 10092086
17:00+17nw6104994 0.0 10091560
20:00+15nw611603 0.0 1009939
18 june, fri
fri1823:00+9wnw22820 0.0 101013
02:00+7wsw11890 0.0 101012
05:00+7wsw11895 0.0 101013
08:00+15wnw410525 0.0 10071018
11:00+19nw7113520 0.0 10052633
14:00+21nw8112972 0.0 10043002
17:00+21nnw7102960 0.0 10043093
20:00+17nnw49445 0.0 1005504
19 june, sat
sat1923:00+12wnw116159 0.0 100611
02:00+10wnw116549 0.0 100610
05:00+10w1171100 0.0 100610
08:00+16w24537 0.0 1006550
11:00+21nw563516 0.0 10052519
14:00+24nw562444 0.0 10032985
17:00+24nw452352 0.0 10022765
20:00+19nne22390 0.0 100328
20 june, sun
sun2023:00+14ene22485 0.0 100512
02:00+12e11564 0.0 100611
05:00+11ese21635 0.0 100611
08:00+17se12465 0.0 1006311
11:00+23sse23335 0.0 10051129
14:00+26s23295 0.1 10031931
17:00+27sse222950 0.0 10012008
20:00+22e1148100 0.0 100213
21 june, mon
mon2123:00+18ne2264100 0.4 100419
02:00+14wsw1194100 1.3 100723
05:00+14ene1192100 1.1 100713
08:00+17ssw117942 1.2 1009408
11:00+21ssw125996 0.2 10091112
14:00+21se226237 0.8 1008737
17:00+25e124136 0.1 10071910
20:00+21ne115827 0.1 100711